Wakefield, VA

2:39 AM EDT on September 22, 2019 (GMT -0400)
Wakefield Municipal

Weather History for KAKQ - August, 2019

Change the Weather History Date:

Sunday, August 18, 2019

  Actual Average (KJGG) Record (KJGG)
Temperature  
Mean Temperature 80 °F -  
Max Temperature 91 °F 86 °F 97 °F (1991)
Min Temperature 70 °F 66 °F 52 °F (1981)
Cooling Degree Days 16    
Growing Degree Days 30 (Base 50)    
Moisture  
Dew Point 71 °F    
Average Humidity 84    
Maximum Humidity 97    
Minimum Humidity 52    
Precipitation  
Precipitation 0.00 in - - ()
Sea Level Pressure  
Sea Level Pressure 30.00 in    
Wind  
Wind Speed 0 mph (SE)    
Max Wind Speed 5 mph    
Max Gust Speed -    
Visibility 6 miles    
Events Fog    
Averages and records for this station are not official NWS values.
T = Trace of Precipitation, MM = Missing Value Source: NWS Daily Summary

Daily Weather History Graph

Daily Weather History Graph

Search for Another Location

Airport or City:

Astronomy

Aug. 18, 2019 Rise Set
Actual Time 6:27 AM EDT 7:56 PM EDT
Civil Twilight 5:59 AM EDT 8:23 PM EDT
Nautical Twilight 5:26 AM EDT 8:56 PM EDT
Astronomical Twilight 4:52 AM EDT 9:30 PM EDT
Moon 9:53 PM EDT (8/18) 9:07 AM EDT (8/18)
Length of Visible Light 14h 23m
Length of Day
13h 28m
Waning Gibbous, 91% of the Moon is Illuminated
Aug 18
Waning Gibbous
Aug 23
Last Quarter
Aug 30
New
Sep 5
First Quarter
Sep 14
Full

Hourly Weather History & Observations

Time (EDT) Temp. Heat Index Dew Point Humidity Pressure Visibility Wind Dir Wind Speed Gust Speed Precip Events Conditions
12:54 AM 73.0 °F - 70.0 °F 90% 30.02 in 10.0 mi Calm Calm - N/A   Partly Cloudy
1:54 AM 73.0 °F - 70.0 °F 90% 30.01 in 10.0 mi Calm Calm - N/A   Clear
2:54 AM 71.1 °F - 69.1 °F 93% 30.00 in 8.0 mi Calm Calm - N/A   Clear
3:54 AM 70.0 °F - 68.0 °F 93% 29.99 in 4.0 mi Calm Calm - N/A   Clear
4:54 AM 70.0 °F - 68.0 °F 93% 29.99 in 5.0 mi Calm Calm - N/A   Clear
5:54 AM 70.0 °F - 68.0 °F 93% 29.99 in 6.0 mi Calm Calm - N/A   Mostly Cloudy
6:14 AM 70.0 °F - 68.0 °F 93% 30.01 in 6.0 mi Calm Calm - N/A   Scattered Clouds
6:54 AM 71.1 °F - 69.1 °F 93% 30.02 in 5.0 mi Calm Calm - N/A   Clear
7:03 AM 71.1 °F - 69.1 °F 93% 30.02 in 5.0 mi Calm Calm - N/A   Scattered Clouds
7:12 AM 71.1 °F - 69.1 °F 93% 30.02 in 4.0 mi Calm Calm - N/A   Mostly Cloudy
7:25 AM 72.0 °F - 69.1 °F 91% 30.01 in 1.8 mi Calm Calm - N/A   Overcast
7:34 AM 71.1 °F - 70.0 °F 96% 30.02 in 0.2 mi Calm Calm - N/A Fog Fog
7:54 AM 72.0 °F - 71.1 °F 97% 30.01 in 0.2 mi Calm Calm - N/A Fog Fog
8:00 AM 73.0 °F - 71.1 °F 93% 30.02 in 1.0 mi Calm Calm - N/A   Mist
8:03 AM 73.0 °F - 71.1 °F 93% 30.02 in 3.0 mi Calm Calm - N/A   Mostly Cloudy
8:10 AM 73.0 °F - 71.1 °F 93% 30.02 in 5.0 mi Calm Calm - N/A   Scattered Clouds
8:21 AM 73.0 °F - 72.0 °F 96% 30.02 in 2.5 mi South 3.5 mph - N/A   Mostly Cloudy
8:25 AM 73.0 °F - 72.0 °F 96% 30.02 in 0.8 mi SSE 3.5 mph - N/A   Mostly Cloudy
8:37 AM 73.0 °F - 72.0 °F 96% 30.02 in 0.2 mi Calm Calm - N/A Fog Fog
8:54 AM 73.9 °F - 72.0 °F 93% 30.02 in 0.5 mi Calm Calm - N/A Fog Fog
9:02 AM 73.9 °F - 72.0 °F 93% 30.02 in 2.0 mi Calm Calm - N/A   Overcast
9:12 AM 75.0 °F - 73.0 °F 94% 30.02 in 4.0 mi Calm Calm - N/A   Overcast
9:34 AM 78.1 °F - 73.9 °F 87% 30.02 in 9.0 mi Calm Calm - N/A   Scattered Clouds
9:54 AM 78.1 °F - 73.0 °F 84% 30.02 in 10.0 mi Calm Calm - N/A   Clear
10:54 AM 84.0 °F 91.2 °F 73.9 °F 72% 30.03 in 10.0 mi East 3.5 mph - N/A   Clear
11:54 AM 84.9 °F 91.4 °F 73.0 °F 67% 30.02 in 10.0 mi Calm Calm - N/A   Partly Cloudy
12:54 PM 87.1 °F 93.6 °F 72.0 °F 61% 30.02 in 10.0 mi Calm Calm - N/A   Partly Cloudy
1:54 PM 88.0 °F 95.6 °F 73.0 °F 61% 30.02 in 10.0 mi SSE 4.6 mph - N/A   Mostly Cloudy
2:54 PM 90.0 °F 97.9 °F 73.0 °F 57% 30.00 in 10.0 mi Calm Calm - N/A   Partly Cloudy
3:54 PM 91.0 °F 99.3 °F 73.0 °F 55% 29.98 in 10.0 mi Calm Calm - N/A   Mostly Cloudy
4:54 PM 91.0 °F 97.6 °F 71.1 °F 52% 29.96 in 10.0 mi Calm Calm - N/A   Clear
5:54 PM 90.0 °F 96.4 °F 71.1 °F 54% 29.95 in 10.0 mi Calm Calm - N/A   Clear
6:54 PM 89.1 °F 98.0 °F 73.9 °F 61% 29.96 in 10.0 mi Calm Calm - N/A   Clear
7:54 PM 82.0 °F 89.4 °F 75.9 °F 82% 29.96 in 10.0 mi Calm Calm - N/A   Clear
8:54 PM 78.1 °F - 75.0 °F 90% 29.97 in 10.0 mi Calm Calm - N/A   Clear
9:54 PM 78.1 °F - 73.9 °F 87% 29.99 in 10.0 mi Calm Calm - N/A   Clear
10:54 PM 75.9 °F - 73.0 °F 91% 29.99 in 10.0 mi Calm Calm - N/A   Clear
11:54 PM 77.0 °F - 73.0 °F 88% 30.00 in 10.0 mi Calm Calm - N/A   Clear